Regional Weather Roundup
Issued by NWS

Home | Current Version | Previous Version | Text Only | Print | Product List | Glossary On
Versions: 1 2 3 4 5 6 7 8 9 10 11 12 13 14 15 16 17 18 19 20 21 22 23 24 25 26 27 28 29 30 31 32 33 34 35 36 37 38 39 40 41 42 43 44 45 46 47 48 49 50
000
ASUS43 KMPX 271110
RWRMN
WEATHER ROUNDUP FOR MINNESOTA
NATIONAL WEATHER SERVICE TWIN CITIES/CHANHASSEN MN
600 AM CDT FRI MAY 27 2016


NOTE: "FAIR" INDICATES FEW OR NO CLOUDS BELOW 12,000 FEET WITH NO
SIGNIFICANT WEATHER AND/OR OBSTRUCTIONS TO VISIBILITY. N/A MEANS
CURRENT SKY AND/OR WEATHER CONDITIONS ARE NOT AVAILABLE.

MNZ060>063-068>070-271200-
   Twin Cities Metro

CITY           SKY/WX    TMP DP  RH WIND       PRES   REMARKS
TWIN CITIES    CLOUDY    67  56  67 SE8       29.79F
ST PAUL        CLOUDY    66  58  75 SE8       29.80F
CRYSTAL        CLOUDY    68  54  60 SE8       29.78F
BLAINE         CLOUDY    68  57  68 SE7       29.80F
EDEN PRAIRIE   CLOUDY    68  53  58 S7        29.77F
SOUTH ST PAUL  CLOUDY    66  58  76 SE3       29.80F
LAKE ELMO      CLOUDY    64  59  82 E6        29.82F
$$
MNZ001>005-007-008-013>017-022>024-027-028-271200-
   Northwest Minnesota

CITY           SKY/WX    TMP DP  RH WIND       PRES   REMARKS
BEMIDJI        CLEAR     49  48  95 CALM      29.81S
HALLOCK        FOG       48  48 100 E3        29.78S VSB<1/4
ROSEAU         CLOUDY    54  48  82 CALM      29.79S HAZE
WARROAD        CLOUDY    54  48  82 CALM      29.79F
THIEF RVR FALL CLEAR     54  50  87 CALM      29.81R
CROOKSTON      CLEAR     54  54 100 NE3       29.78F
FOSSTON        PTCLDY    52  52 100 CALM      29.81R
DETROIT LAKES  PTCLDY    55  52  88 CALM      29.81S
MOORHEAD       CLEAR     55  54  94 SE6       29.78R
PARK RAPIDS    CLEAR     54  50  86 NE3       29.81S
MAHNOMEN       FAIR      53  52  95 E6        29.79S
$$
MNZ006-009>011-018-025>026-271200-
   North Central Minnesota

CITY           SKY/WX    TMP DP  RH WIND       PRES   REMARKS
BAUDETTE       CLOUDY    52  51  97 CALM      29.80F
FLAG ISLAND    CLOUDY    55  54  94 N5        29.78F
INTL FALLS     CLOUDY    51  50  96 CALM      29.83R
WASKISH        MOCLDY    57  54  88 SE3       29.81S
BIG FORK       CLEAR     46  45  93 CALM      29.83F
LONGVILLE      CLEAR     48  48 100 N5        29.82S
GRAND RAPIDS   MOCLDY    48  47  96 E5        29.84  FOG
CRANE LAKE     FOG       43  43 100 CALM      29.85S VSB 1/2
ORR            PTCLDY    48  45  87 CALM      29.82R
COOK           CLEAR     45  45 100 CALM      29.84S
WALKER         FAIR      50  49  95 CALM      29.83S
$$
MNZ012-019>021-037-271200-
   Northeast Minnesota

CITY           SKY/WX    TMP DP  RH WIND       PRES   REMARKS
DULUTH         CLOUDY    49  46  90 CALM      29.85R
ELY            CLEAR     46  46 100 CALM      29.84F
HIBBING        PTCLDY    41  41 100 CALM      29.85R
EVELETH        FOG       43  43 100 CALM      29.85S VSB<1/4
DULUTH HARBOR  CLOUDY    45  45 100 E5        29.87R FOG
TWO HARBORS    HAZE      48  45  87 CALM      29.83F VSB<1/4
SILVER BAY       N/A     46  46 100 CALM      29.84F
GRAND MARAIS     N/A     42  41  96 W3        29.88R
G MARAIS ARPRT CLOUDY    48  46  93 CALM      29.87R
$$
MNZ029>031-032-039>041-046>048-054>057-064-271200-
   West Central Minnesota

CITY           SKY/WX    TMP DP  RH WIND       PRES   REMARKS
FERGUS FALLS   CLEAR     57  52  82 NE3       29.76S
WHEATON        PTCLDY    57  54  88 CALM      29.78F
MORRIS         PTCLDY    55  52  88 NE9       29.74F
ALEXANDRIA     MOCLDY    56  51  84 N6        29.78F
ELBOW LAKE     FAIR      59  52  76 NE8       29.77F
WADENA         CLEAR     48  46  93 CALM      29.79F
GLENWOOD       PTCLDY    57  52  82 N8        29.77F
APPLETON       CLOUDY    57  52  82 E3        29.73F
ORTONVILLE     PTCLDY    55  52  88 W5        29.74F
MADISON        CLOUDY    55  54  94 NW3       29.74F
WILLMAR        FAIR      61  57  88 SE3       29.76F
$$
MNZ033>034-036-042>043-049>051-058-059-271200-
   Central Minnesota

CITY           SKY/WX    TMP DP  RH WIND       PRES   REMARKS
ST CLOUD       CLOUDY    59  54  83 CALM      29.78R
SAUK CENTRE    CLOUDY    56  53  90 NE3       29.77F
PAYNESVILLE    CLOUDY    60  57  88 CALM      29.77F
AITKIN         MOCLDY    50  46  87 CALM      29.80F
PINE RIVER     CLEAR     52  52 100 NW6       29.85R
BRAINERD       MOCLDY    57  50  77 CALM      29.80F
STAPLES        PTCLDY    52  48  87 N3        29.80F
LITTLE FALLS   CLOUDY    57  50  77 CALM      29.78F
LITCHFIELD     CLOUDY    63  59  88 SE3       29.77F
BUFFALO        CLOUDY    65  55  68 SE7       29.79S
MAPLE LAKE     CLOUDY    66  58  77 S3        29.79R
HUTCHINSON     PTCLDY    62  59  90 CALM      29.78F
$$
MNZ037-044-045-052-053-271200-
   East Central Minnesota

CITY           SKY/WX    TMP DP  RH WIND       PRES   REMARKS
PRINCETON      CLOUDY    63  55  77 CALM      29.78F
MORA           CLOUDY    55  52  88 CALM      29.82S
CAMBRIDGE      LGT RAIN  68  55  64 SE8       29.79S
RUSH CITY      MOCLDY    60  54  82 S9        29.81S
MOOSE LAKE     CLOUDY    48  46  93 CALM      29.83R
HINCKLEY       FAIR      54  54 100 CALM      29.82F
CLOQUET        PTCLDY    48  46  93 CALM      29.84S
MCGREGOR       MOCLDY    50  48  93 CALM      29.83S
$$
MNZ071>073-080-081-089-090-097-098-271200-
   Southwest Minnesota

CITY           SKY/WX    TMP DP  RH WIND       PRES   REMARKS
MONTEVIDEO     CLOUDY    59  54  82 CALM      29.75F
GRANITE FALLS  PTCLDY    59  55  84 CALM      29.76F
CANBY          CLOUDY    59  55  89 NW6       29.75F
MARSHALL       CLOUDY    62  56  80 NW5       29.74F
REDWOOD FALLS  CLOUDY    60  56  86 S6        29.74F
OLIVIA         CLOUDY    54  50  87 CALM      29.74F
PIPESTONE      CLOUDY    59  55  88 S7        29.75F
WINDOM         CLOUDY    59  55  88 CALM      29.76F
WORTHINGTON    CLOUDY    57  55  93 W5        29.75F
JACKSON        CLOUDY    61  55  82 CALM      29.78F
TRACY          MOCLDY    61  57  86 S10       29.75F
SLAYTON        MOCLDY    55  55  98 CALM      29.77F
$$
MNZ065>067-074>077-082>085-091>093-271200-
   South Central Minnesota

CITY           SKY/WX    TMP DP  RH WIND       PRES   REMARKS
MANKATO        CLOUDY    64  54  68 S5        29.79F
NEW ULM        CLOUDY    61  57  88 SE8       29.77F
ST JAMES       CLOUDY    57  54  88 CALM      29.78F
FAIRMONT       CLOUDY    61  52  72 S6        29.77F
GLENCOE        CLOUDY    64  59  82 SE8       29.77F
FARIBAULT      CLOUDY    66  55  68 SE5       29.81F
OWATONNA       CLOUDY    64  55  72 SE8       29.81F
WASECA         LGT RAIN  63  54  72 SE8       29.81F
ALBERT LEA     CLOUDY    64  55  72 SE9       29.81S
$$
MNZ078>079-086>088-094>096-271200-
   Southeast Minnesota

CITY           SKY/WX    TMP DP  RH WIND       PRES   REMARKS
ROCHESTER      CLOUDY    62  60  93 S5        29.84F
RED WING       CLOUDY    64  61  88 N1        29.81S
STANTON        LGT RAIN  67  55  65 SE6       29.79F
DODGE CENTER   CLOUDY    63  57  82 S6        29.83F
WINONA         CLOUDY    63  61  94 CALM      29.83F
AUSTIN         CLOUDY    63  55  77 SE3       29.83S
PRESTON        CLOUDY    61  57  88 SE7       29.86F
$$
ABBREVIATIONS USED IN REMARKS
   TC - TEMPERATURES IN CELSIUS
  WCI - WIND CHILL INDEX
   HX - HEAT INDEX
  VSB - VISIBILITY
$$



USA.gov is the U.S. government's official web portal to all federal, state and local government web resources and services.